Klawock, AK

8:56 AM AKDT on July 25, 2017 (GMT -0800)
Klawock

Weather History for PAKW - September, 2013

Change the Weather History Date:

Friday, September 6, 2013

  Actual Average Record
Temperature  
Mean Temperature 62 °F -  
Max Temperature 73 °F 58 °F 73 °F (2013)
Min Temperature 50 °F 46 °F 45 °F (1997)
Degree Days  
Heating Degree Days 4    
Growing Degree Days 12 (Base 50)    
Moisture  
Dew Point 52 °F    
Average Humidity 76    
Maximum Humidity 97    
Minimum Humidity 51    
Precipitation  
Precipitation 0.01 in - - ()
Sea Level Pressure  
Sea Level Pressure 30.16 in    
Wind  
Wind Speed 1 mph (SW)    
Max Wind Speed 7 mph    
Max Gust Speed -    
Visibility 10 miles    
Events      
Averages and records for this station are not official NWS values.
T = Trace of Precipitation, MM = Missing Value Source: NWS Daily Summary

Daily Weather History Graph

Daily Weather History Graph

Search for Another Location

Airport or City:

Trip Planner

Search our weather history database for the weather conditions in past years. The results will help you decide how hot, cold, wet, or windy it might be!

Date:

Astronomy

Sep. 06, 2013 Rise Set
Actual Time 6:07 AM AKDT 7:31 PM AKDT
Civil Twilight 5:29 AM AKDT 8:09 PM AKDT
Nautical Twilight 4:42 AM AKDT 8:56 PM AKDT
Astronomical Twilight 3:49 AM AKDT 9:49 PM AKDT
Moon 7:51 AM AKDT (9/6) 7:31 PM AKDT (9/6)
Length of Visible Light 14h 40m
Length of Day
13h 24m
New Moon, 2% of the Moon is Illuminated
Sep 6
New Moon
Sep 12
First Quarter
Sep 19
Full
Sep 26
Last Quarter
Oct 4
New

Hourly Weather History & Observations

Time (AKDT) Temp. Dew Point Humidity Pressure Visibility Wind Dir Wind Speed Gust Speed Precip Events Conditions
12:53 AM 53.1 °F 51.1 °F 93% 30.22 in 10.0 mi Calm Calm - N/A   Mostly Cloudy
1:53 AM 52.0 °F 51.1 °F 97% 30.21 in 10.0 mi Calm Calm - 0.01 in   Clear
2:53 AM 51.1 °F 50.0 °F 96% 30.20 in 10.0 mi Calm Calm - N/A   Clear
3:53 AM 50.0 °F 48.9 °F 96% 30.19 in 10.0 mi Calm Calm - N/A   Clear
4:53 AM 51.1 °F 48.9 °F 92% 30.19 in 9.0 mi Calm Calm - N/A   Mostly Cloudy
5:53 AM 52.0 °F 51.1 °F 97% 30.19 in 10.0 mi Calm Calm - N/A   Overcast
6:53 AM 52.0 °F 51.1 °F 97% 30.19 in 10.0 mi Calm Calm - N/A   Overcast
7:53 AM 55.9 °F 54.0 °F 93% 30.19 in 10.0 mi Calm Calm - N/A   Clear
8:53 AM 61.0 °F 55.0 °F 81% 30.19 in 10.0 mi Calm Calm - N/A   Clear
9:53 AM 64.9 °F 55.0 °F 70% 30.18 in 10.0 mi NNW 3.5 mph - N/A   Mostly Cloudy
10:53 AM 68.0 °F 54.0 °F 61% 30.17 in 10.0 mi Calm Calm - N/A   Clear
11:53 AM 71.1 °F 55.9 °F 59% 30.16 in 10.0 mi WSW 5.8 mph - N/A   Clear
12:53 PM 71.1 °F 54.0 °F 55% 30.16 in 10.0 mi WSW 5.8 mph - N/A   Clear
1:53 PM 73.0 °F 54.0 °F 51% 30.15 in 10.0 mi WSW 6.9 mph - N/A   Clear
2:53 PM 71.1 °F 54.0 °F 55% 30.14 in 10.0 mi WSW 6.9 mph - N/A   Clear
3:53 PM 69.1 °F 53.1 °F 57% 30.14 in 10.0 mi South 5.8 mph - N/A   Clear
4:53 PM 68.0 °F 50.0 °F 52% 30.14 in 10.0 mi Variable 3.5 mph - N/A   Clear
5:53 PM 66.9 °F 50.0 °F 54% 30.13 in 10.0 mi South 3.5 mph - N/A   Clear
6:53 PM 62.1 °F 51.1 °F 67% 30.13 in 10.0 mi Calm Calm - N/A   Clear
7:53 PM 59.0 °F 50.0 °F 72% 30.14 in 10.0 mi SSW 3.5 mph - N/A   Clear
8:53 PM 57.0 °F 50.0 °F 77% 30.13 in 10.0 mi Calm Calm - N/A   Clear
9:53 PM 55.9 °F 51.1 °F 84% 30.14 in 10.0 mi Calm Calm - N/A   Clear
10:53 PM 55.0 °F 52.0 °F 89% 30.13 in 10.0 mi Calm Calm - N/A   Clear
11:53 PM 55.0 °F 51.1 °F 86% 30.14 in 10.0 mi Calm Calm - N/A   Clear